San Antonio, TX

10:33 AM CDT on March 24, 2017 (GMT -0500)
San Antonio International

Weather History for KSAT - April, 2015

Change the Weather History Date:

Wednesday, April 22, 2015

  Actual Average Record
Temperature  
Mean Temperature 72 °F 71 °F  
Max Temperature 76 °F 82 °F 96 °F (1963)
Min Temperature 68 °F 60 °F 43 °F (1993)
Degree Days  
Heating Degree Days 0 1  
Month to date heating degree days 1 37  
Since 1 July heating degree days 1488 1492  
Cooling Degree Days 7 7  
Month to date cooling degree days 153 109  
Year to date cooling degree days 222 200  
Growing Degree Days 22 (Base 50)    
Moisture  
Dew Point 67 °F    
Average Humidity 82    
Maximum Humidity 90    
Minimum Humidity 73    
Precipitation  
Precipitation 0.40 in 0.08 in 2.07 in (1978)
Month to date precipitation 2.79 1.41  
Year to date precipitation 9.96 7.27  
Snow  
Snow 0.00 in - - ()
Month to date snowfall 0.0  
Since 1 July snowfall T  
Snow Depth 0.00 in    
Sea Level Pressure  
Sea Level Pressure 29.86 in    
Wind  
Wind Speed 9 mph (SE)    
Max Wind Speed 16 mph    
Max Gust Speed 20 mph    
Visibility 9 miles    
Events Rain , Thunderstorm    
T = Trace of Precipitation, MM = Missing Value Source: NWS Daily Summary

Daily Weather History Graph

Daily Weather History Graph

Search for Another Location

Airport or City:

Trip Planner

Search our weather history database for the weather conditions in past years. The results will help you decide how hot, cold, wet, or windy it might be!

Date:

Astronomy

Apr. 22, 2015 Rise Set
Actual Time 7:00 AM CDT 8:04 PM CDT
Civil Twilight 6:35 AM CDT 8:29 PM CDT
Nautical Twilight 6:06 AM CDT 8:58 PM CDT
Astronomical Twilight 5:36 AM CDT 9:29 PM CDT
Moon 10:19 AM CDT (4/22) No Moon Set
Length of Visible Light 13h 53m
Length of Day
13h 04m
Waxing Crescent, 19% of the Moon is Illuminated
Apr 22
Waxing Crescent
Apr 25
First Quarter
May 3
Full
May 11
Last Quarter
May 17
New

Hourly Weather History & Observations

Time (CDT) Temp. Dew Point Humidity Pressure Visibility Wind Dir Wind Speed Gust Speed Precip Events Conditions
12:27 AM 71.1 °F 64.0 °F 78% 29.95 in 10.0 mi SSE 9.2 mph - N/A   Overcast
12:51 AM 70.0 °F 64.9 °F 84% 29.91 in 10.0 mi SSE 10.4 mph - N/A   Overcast
1:51 AM 69.1 °F 64.9 °F 87% 29.89 in 10.0 mi SE 11.5 mph - N/A   Overcast
2:01 AM 69.1 °F 64.9 °F 87% 29.94 in 10.0 mi SE 11.5 mph - N/A   Overcast
2:51 AM 69.1 °F 64.0 °F 84% 29.89 in 10.0 mi South 11.5 mph - N/A   Overcast
3:14 AM 69.1 °F 64.0 °F 84% 29.93 in 10.0 mi SSE 9.2 mph - N/A   Overcast
3:51 AM 69.1 °F 64.0 °F 84% 29.87 in 10.0 mi SSE 8.1 mph - N/A   Overcast
4:01 AM 69.1 °F 64.0 °F 84% 29.92 in 10.0 mi SSE 6.9 mph - N/A   Overcast
4:51 AM 68.0 °F 64.0 °F 87% 29.86 in 10.0 mi SE 8.1 mph - N/A   Overcast
4:57 AM 68.0 °F 64.0 °F 87% 29.91 in 10.0 mi SE 8.1 mph - N/A   Overcast
5:51 AM 68.0 °F 64.0 °F 87% 29.86 in 9.0 mi SE 8.1 mph - N/A   Overcast
6:48 AM 68.0 °F 64.4 °F 88% 29.90 in 10.0 mi SE 5.8 mph - N/A   Overcast
6:51 AM 68.0 °F 64.9 °F 90% 29.86 in 9.0 mi SE 5.8 mph - N/A   Overcast
7:51 AM 69.1 °F 64.9 °F 87% 29.87 in 9.0 mi ESE 5.8 mph - N/A   Overcast
8:16 AM 70.0 °F 64.9 °F 84% 29.92 in 10.0 mi SE 6.9 mph - N/A   Overcast
8:51 AM 70.0 °F 64.9 °F 84% 29.88 in 10.0 mi ESE 5.8 mph - N/A   Overcast
9:51 AM 71.1 °F 64.9 °F 81% 29.88 in 10.0 mi ESE 9.2 mph - N/A   Overcast
10:51 AM 73.9 °F 64.9 °F 73% 29.88 in 10.0 mi ESE 9.2 mph - N/A   Overcast
11:51 AM 73.9 °F 66.0 °F 76% 29.89 in 10.0 mi SSE 10.4 mph - N/A   Overcast
12:51 PM 73.9 °F 66.9 °F 79% 29.86 in 10.0 mi SE 9.2 mph - N/A   Overcast
1:36 PM 73.0 °F 66.9 °F 81% 29.88 in 10.0 mi ESE 9.2 mph - N/A   Overcast
1:51 PM 73.0 °F 66.9 °F 81% 29.83 in 10.0 mi East 9.2 mph - 0.00 in Rain Light Rain
2:24 PM 73.0 °F 68.0 °F 84% 29.87 in 6.0 mi Calm Calm - 0.01 in Rain , Thunderstorm Light Thunderstorms and Rain
2:31 PM 72.0 °F 68.0 °F 87% 29.88 in 1.0 mi WNW 4.6 mph - 0.05 in Rain , Thunderstorm Heavy Thunderstorms and Rain
2:51 PM 72.0 °F 69.1 °F 91% 29.84 in 2.0 mi North 8.1 mph - 0.33 in Rain , Thunderstorm Thunderstorms and Rain
3:18 PM 73.0 °F 69.1 °F 87% 29.87 in 8.0 mi ESE 12.7 mph - 0.07 in Rain Light Rain
3:51 PM 75.9 °F 71.1 °F 85% 29.80 in 10.0 mi ESE 11.5 mph - 0.07 in   Mostly Cloudy
4:04 PM 75.9 °F 70.0 °F 82% 29.84 in 10.0 mi ESE 11.5 mph - N/A   Overcast
4:46 PM 75.2 °F 69.8 °F 83% 29.84 in 10.0 mi ESE 10.4 mph - N/A   Overcast
4:51 PM 75.0 °F 70.0 °F 84% 29.80 in 10.0 mi ESE 11.5 mph - N/A   Overcast
5:37 PM 75.0 °F 69.1 °F 82% 29.85 in 10.0 mi ESE 9.2 mph - N/A   Overcast
5:51 PM 75.0 °F 70.0 °F 84% 29.80 in 10.0 mi ESE 8.1 mph - N/A   Overcast
6:38 PM 75.0 °F 70.0 °F 84% 29.84 in 10.0 mi SE 11.5 mph - N/A   Overcast
6:51 PM 75.0 °F 70.0 °F 84% 29.78 in 10.0 mi SE 9.2 mph - N/A   Overcast
7:51 PM 73.9 °F 69.1 °F 85% 29.79 in 10.0 mi SE 11.5 mph - N/A   Overcast
8:51 PM 73.0 °F 68.0 °F 84% 29.81 in 10.0 mi SSE 10.4 mph - N/A   Overcast
9:23 PM 73.0 °F 69.1 °F 87% 29.85 in 10.0 mi South 8.1 mph - 0.00 in Rain Light Rain
9:51 PM 73.0 °F 68.0 °F 84% 29.82 in 10.0 mi SSE 6.9 mph - 0.00 in   Overcast
10:51 PM 72.0 °F 68.0 °F 87% 29.83 in 10.0 mi SSE 6.9 mph - N/A   Overcast
11:39 PM 72.0 °F 68.0 °F 87% 29.88 in 10.0 mi SE 5.8 mph - N/A   Overcast
11:51 PM 72.0 °F 68.0 °F 87% 29.85 in 10.0 mi SSE 4.6 mph - N/A   Overcast